Retour au catalogue

STARLINK-36107

ActifCommunicationsVLEO
NORAD 66979·PAYLOAD·🇺🇸 United States

Lancé Dec 8, 2025 depuis Cape Canaveral Space Force Station

Loading…

Prochains Passages (prochaines 24 heures)

TLE

FraisSource: CelesTrak SupGP

Époque: Sep 14, 2026, 23:07 UTC

1 66979C 25288W   26257.96368056  .00012595  00000+0  45620-3 0  2575
2 66979  43.0033  34.9262 0001600 269.8055 311.1508 15.27571349    14

Suivez STARLINK-36107 en temps réel avec AllMySat

Download on the App Store